Regional Weather Roundup
Issued by NWS Glasgow, MT

Home | Current Version | Previous Version | Text Only | Print | Product List | Glossary On
Versions: 1 2 3 4 5 6 7 8 9 10 11 12 13 14 15 16 17 18 19 20 21 22 23 24 25 26 27
000
ASUS45 KGGW 241615
RWRGGW
HOURLY REGIONAL WEATHER ROUNDUP FOR NORTHEAST MONTANA
NATIONAL WEATHER SERVICE GLASGOW MONTANA
900 AM MST TUE JAN 24 2017

NOTE: "FAIR" INDICATES FEW OR NO CLOUDS BELOW 12,000 FEET WITH NO
SIGNIFICANT WEATHER AND/OR OBSTRUCTIONS TO VISISBILITY.

NORTHEAST MONTANA


CITY           SKY/WX    TMP DP  RH WIND       PRES   REMARKS
GLASGOW        CLOUDY    18  16  92 W9        29.90R
PLENTYWOOD       N/A     17  15  92 NW7         N/A
WOLF POINT     CLOUDY    21  15  78 SW5       29.92S
JORDAN           N/A     21  17  84 W5        29.88R
WINNETT          N/A     23  18  81 SW3G12      N/A
SIDNEY         FLURRIES  20  16  84 NW6       29.92R
GLENDIVE       FLURRIES  19  15  84 NW9       29.90S
MALTA            N/A     21  18  88 NW3         N/A
SCOBEY           N/A     15   7  70 CALM      29.87R

FORT PECK REPORTS


CITY           SKY/WX    TMP DP  RH WIND       PRES   REMARKS
FORT PECK        N/A     20  19  96 N3          N/A
THE PINES        N/A     22  19  89 CALM        N/A

SOUTHEAST MONTANA


CITY           SKY/WX    TMP DP  RH WIND       PRES   REMARKS
BILLINGS       FLURRIES  20  17  88 NE8       29.86S
MILES CITY     CLOUDY    21  17  84 NW7       29.90R
BAKER          CLOUDY    19  16  88 NW10      29.85S
LIVINGSTON     CLOUDY    16   9  74 NW7       29.82R

CENTRAL MONTANA


CITY           SKY/WX    TMP DP  RH WIND       PRES   REMARKS
HAVRE          CLOUDY    17  15  92 NW7       29.93R
LEWISTOWN      CLOUDY    16  13  88 W7        29.84R
GREAT FALLS    CLEAR     12   8  84 SW13      29.88R WCI  -3
CUT BANK       CLOUDY     9   6  88 N5        29.85S
HELENA         CLOUDY     7   3  84 CALM      29.90R
BUTTE          CLOUDY    -1  -4  87 SE3       29.82R
BOZEMAN        CLOUDY    16  10  77 W7        29.85R

WESTERN MONTANA


CITY           SKY/WX    TMP DP  RH WIND       PRES   REMARKS
MISSOULA       CLOUDY    18  13  80 CALM      29.96R
KALISPELL      NOT AVBL

NORTH DAKOTA


CITY           SKY/WX    TMP DP  RH WIND       PRES   REMARKS
WILLISTON      CLOUDY    19  14  81 W5        29.91R
DICKINSON      CLOUDY    20  16  84 N12       29.83R
MINOT          CLOUDY    23  16  74 W10       29.85S
BISMARCK       CLOUDY    25  19  78 N7        29.90R

SOUTHERN SASKATCHEWAN


CITY           SKY/WX    TMP DP  RH WIND       PRES   REMARKS
REGINA         FLURRIES  14  10  85 NW10      29.89S
MOOSE JAW      FLURRIES  14  12  92 NW10      29.92S
ESTEVAN        FLURRIES  16  12  86 NW15      29.87R
SWIFT CURRENT  LGT SNOW  10   9  92 NW13      29.87R WCI  -5





USA.gov is the U.S. government's official web portal to all federal, state and local government web resources and services.